Voltar ao catálogo

FLOCK 4H 34

AtivoCiênciaSSO
NORAD 66737·PAYLOAD·🇺🇸 United States

Lançado Nov 28, 2025 de Vandenberg Space Force Base

Loading…

Próximas Passagens (próximas 24 horas)

TLE

AtualizadoSource: CelesTrak SupGP

Época: Sep 14, 2026, 06:45 UTC

1 66737C 25276BZ  26257.28140046  .00003939  00000+0  17564-3 0  2574
2 66737  97.4164 329.7946 0002580  36.7630  68.7342 15.21475999    15

Acompanhe FLOCK 4H 34 em tempo real com AllMySat

Download on the App Store